Hourly Data Report for July 03, 2022

OTTAWA INTL A
ONTARIO
Current Station Operator: NAVCAN

45°19'00.000" N
75°40'00.000" W
114.90 m
6106001
71628
YOW

Download Data

Hourly Data (July 2022)
Hourly Data Report for July 3, 2022
TIME
LST
Temp Definition
°C
Dew Point Definition
°C
Rel Hum Definition
%
Precip. Amount Definition
mm

Wind Dir Definition
10's deg

Wind Spd Definition
km/h
Visibility Definition
km
Stn Press Definition
kPa
Hmdx Definition


Wind Chill Definition


Weather Definition


00:00 14.9 6.3 56   26 12 24.1 99.91     LegendNANA
01:00 14.6 6.6 58   27 13 24.1 99.94     Clear
02:00 13.3 7.2 67   26 11 24.1 100.01     LegendNANA
03:00 14.4 9.0 70   28 10 24.1 100.04     LegendNANA
04:00 13.5 9.6 77   30 9 24.1 100.12     Mainly Clear
05:00 12.1 9.2 83   26 9 24.1 100.19     LegendNANA
06:00 14.2 10.0 75   27 11 24.1 100.27     LegendNANA
07:00 17.8 10.6 63   30 17 24.1 100.34     Clear
08:00 19.1 10.4 57   29 15 24.1 100.37     LegendNANA
09:00 19.6 10.2 54   29 21 24.1 100.39     LegendNANA
10:00 20.8 9.4 47   29 23 24.1 100.41     Clear
11:00 21.4 8.9 44   28 22 24.1 100.40     LegendNANA
12:00 22.5 9.3 43   25 19 24.1 100.40     LegendNANA
13:00 23.2 9.0 40   28 25 24.1 100.39     Mainly Clear
14:00 23.8 7.5 35   29 28 24.1 100.35     LegendNANA
15:00 24.7 8.1 34   27 24 24.1 100.34 25   LegendNANA
16:00 24.6 8.4 35   26 23 24.1 100.33 25   Mostly Cloudy
17:00 24.6 7.8 34   26 24 24.1 100.32 25   LegendNANA
18:00 23.9 7.7 35   31 21 24.1 100.36     LegendNANA
19:00 22.3 8.7 41   34 17 24.1 100.40     Mostly Cloudy
20:00 21.0 8.3 44   31 14 24.1 100.42     LegendNANA
21:00 20.1 8.6 47   29 10 24.1 100.45     LegendNANA
22:00 18.8 9.7 55   28 13 24.1 100.48     Mainly Clear
23:00 16.2 9.8 65   27 12 24.1 100.51     LegendNANA

Notes on Data Quality.

Legend

  • E = Estimated
  • M = Missing
  • NA = Not Available*
  • [empty] = Indicates an unobserved value
Date modified: